Location: Hurecourt
(47.9030°N, 6.0653°E)
Time: 04:41:39
(UTC+00:00)

SL-08 R/B - Pass Details

Date: 14 July 2020
Orbit: 675 x 738 km, 98.4° (Epoch: 06 August)

Event Time Altitude Azimuth Distance (km) Brightness Sun altitude
Exits shadow 03:01:17 - 191° (S) 2,725 5.9 -7.4°
Reaches altitude 10° 03:02:47 10° 198° (SSW) 2,163 5.3 -7.2°
Maximum altitude 03:07:08 35° 264° (W) 1,146 4.0 -6.6°
Drops below altitude 10° 03:11:34 10° 330° (NNW) 2,217 6.1 -6.1°
Sets 03:14:03 0° 339° (NNW) 3,152 7.0 -5.8°
